Location: Ay?beleni
(36.6500°N, 30.3000°E)
Time: 23:45:52
(UTC+00:00)

Cosmos 1656 Rocket - Pass Details

Date: 09 April 2020
Orbit: 795 x 846 km, 71.1° (Epoch: 24 May)

Event Time Altitude Azimuth Distance (km) Brightness Sun altitude
Rises 17:25:40 0° 338° (NNW) 3,398 7.5 -11.9°
Reaches altitude 10° 17:28:08 10° 339° (NNW) 2,454 6.7 -12.4°
Maximum altitude 17:33:47 86° 68° (ENE) 835 3.6 -13.5°
Drops below altitude 10° 17:39:19 10° 158° (SSE) 2,406 5.7 -14.5°
Enters shadow 17:39:31 - 158° (SSE) 2,484 5.7 -14.5°
